ONEWEB-0633, 56074

Orbit data source: Space-Track

ONEWEB-0633, 56074 is a payload satellite owned by One Web (NAA) (UK) in LEO that was launched on Sun, 26 Mar 2023 UTC via a LVM3 launch vehicle from the Sirharikota (SRI). Payloads include a variety of satellites, spacecraft, and rockets equipped with specific instruments for various scientific and technological missions. These include communications satellites like Starlink; space stations such as the ISS; scientific satellites like the Hubble; Earth observation satellites from companies like Planet Labs, Umbra, and HawkEye 360; GPS; miniature CubeSats for education and research; and military/defense satellites.

Loading next visibility...
ONEWEB-0633 details
Identifier
56074, 2023-043AE
Orbit
LEO
Last TLE update15 hours ago
Origin
Flag of UKOne Web (NAA) (UK)
ManufacturerOne Web
MissionOperational Commercial Communications
Bus & MotorARROW, Unknown motor
Mass148 kg wet, ~140 kg dry
Launch date (UTC)
2023-03-26 (2 years ago)
Launch vehicle
LVM3
Launch site
Sirharikota (SRI)
Object type
Payload
Rocket body
Debris
Shape & HBRTrap Box + 2 Pan, 5 m
Radar Cross Section2.032 m², Medium (>0.1 m² and < 1m²)

Expand to show TLE details & history

TLE from 15 hours ago
0 ONEWEB-0633
1 56074U 23043AE  25014.98460169 -.00001005  00000-0 -27052-2 0  9995
2 56074  87.9086   2.3717 0001466 107.4948 252.6343 13.15535240 89182
Epoch: 2025-01-14T23:37Z
Definitive object data (Epoch: 2025-01-14T23:37:49.586Z)
Latitude0.00004°
Longitude-106.76836°
Altitude1,205.049 km
Speed7.251 km/s
True Right ascension00h 09m 29s
True Declination0° 00' 00"
Sunlit
Object was in daylight at TLE epoch
Visualization TLE readout
Latitude33.69582°
Longitude71.7165°
Altitude1,205.407 km
Speed7.255 km/s
Apparent Right ascension08h 47m 04s
Apparent Declination1° 16' 16"
Sunlit
Object is in partial shadow
Visualization observer readout
Local Sidereal Time15:39:16
Azimuth279.436° WNW
Elevation-9.143°
Doppler factor1
Orbital elements
Apogee altitude1,200.045 km
Perigee altitude1,197.823 km
Semi-major axis7,577.071 km
Eccentricity0.0001466
Inclination87.9086°
RAAN2.3717°
Arg. of periapsis107.4948°
True anomaly252.61827°
Mean anomaly252.6343°
Eccentric anomaly252.62628°
Mean motion3.29072 °/min
BSTAR-0.0027052
Orbital period109.4 mins
Loading maneuver chart data...
Loading historical data...
Loading historical data...
Loading historical data...
Loading historical data...
Loading historical data...
Loading historical data...
Loading historical data...

ONEWEB-0633 Visibility forecast

Observer location: undefined°, undefined

Span
Click to sort rows by Start time (UTC) header in descending order
Start Az.
Max El. time (UTC)
Max El. Az.
Max El.
End time (UTC)
End Az.
6 mins2025-01-15 21:42:29.679Z95.88° ESE2025-01-15 21:45:29.679Z69.426° E14.478°2025-01-15 21:48:29.679Z43.67° NE
13 mins2025-01-15 23:27:29.679Z178.688° S2025-01-15 23:33:29.679Z182.777° SSW44.874°2025-01-15 23:40:29.679Z0.542° NNE
5 mins2025-01-16 01:22:29.679Z271.983° WNW2025-01-16 01:24:29.679Z290.119° WNW14.261°2025-01-16 01:27:29.679Z315.948° NNW
13 mins2025-01-16 10:55:29.679Z5.733° NNE2025-01-16 11:01:29.679Z97.925° ESE43.4°2025-01-16 11:08:29.679Z172.052° S
8 mins2025-01-16 12:46:29.679Z320.114° NNW2025-01-16 12:50:29.679Z281.566° WNW18.743°2025-01-16 12:54:29.679Z246.003° WSW
|